Radiation Dose measured at Intake/Vertical shaft monitor
Date,Time,Intake(cps),Vertical shaft(cps),Rain
2024/05/29,00:00,8.2,4.5,Yes
2024/05/29,00:10,8.2,4.6,Yes
2024/05/29,00:20,8.4,4.7,Yes
2024/05/29,00:30,8.2,4.8,Yes
2024/05/29,00:40,8.4,4.7,Yes
2024/05/29,00:50,8.7,4.8,Yes
2024/05/29,01:00,8.6,4.7,No
2024/05/29,01:10,8.9,4.7,No
2024/05/29,01:20,9.1,4.8,No
2024/05/29,01:30,8.9,4.9,No
2024/05/29,01:40,9.0,4.9,Yes
2024/05/29,01:50,8.7,4.8,Yes
2024/05/29,02:00,8.5,4.9,Yes
2024/05/29,02:10,8.6,4.6,Yes
2024/05/29,02:20,8.4,4.6,Yes
2024/05/29,02:30,8.9,4.8,Yes
2024/05/29,02:40,9.3,4.8,Yes
2024/05/29,02:50,9.9,4.9,Yes
2024/05/29,03:00,9.8,5.2,Yes
2024/05/29,03:10,10.0,5.2,Yes
2024/05/29,03:20,10.0,5.2,Yes
2024/05/29,03:30,11.0,5.4,Yes
2024/05/29,03:40,11.0,5.5,Yes
2024/05/29,03:50,12.0,5.8,Yes
2024/05/29,04:00,12.0,5.8,Yes
2024/05/29,04:10,11.0,5.9,Yes
2024/05/29,04:20,11.0,5.8,Yes
2024/05/29,04:30,11.0,5.6,Yes
2024/05/29,04:40,12.0,5.7,Yes
2024/05/29,04:50,12.0,5.8,Yes
2024/05/29,05:00,12.0,5.7,Yes
2024/05/29,05:10,12.0,5.8,Yes
2024/05/29,05:20,11.0,5.6,No
2024/05/29,05:30,11.0,5.5,No
2024/05/29,05:40,11.0,5.4,No
2024/05/29,05:50,10.0,5.3,No
2024/05/29,06:00,10.0,5.2,No
2024/05/29,06:10,9.5,5.2,No
2024/05/29,06:20,9.5,4.9,No
2024/05/29,06:30,9.1,4.8,No
2024/05/29,06:40,8.9,4.7,No
2024/05/29,06:50,8.7,4.7,No
2024/05/29,07:00,8.7,4.7,No
2024/05/29,07:10,8.4,4.6,No
2024/05/29,07:20,8.3,4.7,No
2024/05/29,07:30,8.2,4.5,No
2024/05/29,07:40,8.3,4.6,No
2024/05/29,07:50,8.2,4.6,No
2024/05/29,08:00,8.1,4.6,No
2024/05/29,08:10,8.3,4.6,No
2024/05/29,08:20,8.1,4.6,No
2024/05/29,08:30,8.2,4.6,No
2024/05/29,08:40,8.0,4.5,No
2024/05/29,08:50,8.0,4.4,No
2024/05/29,09:00,7.9,4.5,No
2024/05/29,09:10,8.1,4.5,No
2024/05/29,09:20,7.8,4.5,No
2024/05/29,09:30,8.1,4.5,No
2024/05/29,09:40,8.2,4.6,No
2024/05/29,09:50,8.2,4.5,No
2024/05/29,10:00,8.0,4.6,No
2024/05/29,10:10,8.0,4.6,No
2024/05/29,10:20,8.2,4.6,No
2024/05/29,10:30,8.3,4.7,No
2024/05/29,10:40,8.3,4.4,No
2024/05/29,10:50,8.2,4.5,No
2024/05/29,11:00,8.0,4.6,No
2024/05/29,11:10,8.0,4.5,No
2024/05/29,11:20,8.1,4.6,No
2024/05/29,11:30,8.0,4.5,No
2024/05/29,11:40,8.2,4.6,Yes
2024/05/29,11:50,8.3,4.5,No
2024/05/29,12:00,8.2,4.5,No
2024/05/29,12:10,8.2,4.4,No
2024/05/29,12:20,8.4,4.6,No
2024/05/29,12:30,8.4,4.7,No
2024/05/29,12:40,8.1,4.5,No
2024/05/29,12:50,8.3,4.6,No
2024/05/29,13:00,8.3,4.7,No
2024/05/29,13:10,8.2,4.5,No
2024/05/29,13:20,8.3,4.7,No
2024/05/29,13:30,8.2,4.5,No
2024/05/29,13:40,8.4,4.5,No
2024/05/29,13:50,8.3,4.6,No
2024/05/29,14:00,8.1,4.6,No
2024/05/29,14:10,8.5,4.6,No
2024/05/29,14:20,8.2,4.5,No
2024/05/29,14:30,8.1,4.4,No
2024/05/29,14:40,8.5,4.7,No
2024/05/29,14:50,8.1,4.7,No
2024/05/29,15:00,8.1,4.6,No
2024/05/29,15:10,8.3,4.6,No
2024/05/29,15:20,8.1,4.4,No
2024/05/29,15:30,8.4,4.4,No
2024/05/29,15:40,8.2,4.6,No
2024/05/29,15:50,7.9,4.5,No
2024/05/29,16:00,8.4,4.5,No
2024/05/29,16:10,8.3,4.7,Yes
2024/05/29,16:20,8.5,4.5,No
2024/05/29,16:30,8.0,4.6,No
2024/05/29,16:40,8.1,4.5,No
2024/05/29,16:50,8.2,4.4,No
2024/05/29,17:00,8.1,4.5,No
2024/05/29,17:10,8.2,4.6,No
2024/05/29,17:20,8.4,4.5,No
2024/05/29,17:30,8.4,4.6,No
2024/05/29,17:40,8.2,4.5,No
2024/05/29,17:50,8.1,4.6,No
2024/05/29,18:00,8.0,4.6,No
2024/05/29,18:10,7.9,4.5,No
2024/05/29,18:20,8.1,4.5,No
2024/05/29,18:30,8.1,4.6,No
2024/05/29,18:40,8.3,4.6,No
2024/05/29,18:50,8.1,4.5,No
2024/05/29,19:00,8.2,4.6,No
2024/05/29,19:10,8.1,4.7,No
2024/05/29,19:20,8.2,4.4,No
2024/05/29,19:30,8.0,4.5,No
2024/05/29,19:40,8.2,4.5,No
2024/05/29,19:50,8.3,4.5,No
2024/05/29,20:00,8.1,4.6,No
2024/05/29,20:10,8.1,4.5,No
2024/05/29,20:20,8.2,4.6,No
2024/05/29,20:30,8.0,4.5,No
2024/05/29,20:40,8.2,4.5,No
2024/05/29,20:50,8.1,4.5,No
2024/05/29,21:00,7.9,4.5,No
2024/05/29,21:10,7.9,4.4,No
2024/05/29,21:20,7.9,4.6,No
2024/05/29,21:30,7.8,4.6,No
2024/05/29,21:40,8.0,4.5,No
2024/05/29,21:50,8.1,4.5,No
2024/05/29,22:00,8.2,4.5,No
2024/05/29,22:10,8.1,4.4,No
2024/05/29,22:20,8.1,4.4,No
2024/05/29,22:30,8.1,4.4,No
2024/05/29,22:40,7.8,4.6,No
2024/05/29,22:50,8.1,4.6,No
2024/05/29,23:00,8.0,4.6,No
2024/05/29,23:10,7.9,4.4,No
2024/05/29,23:20,8.0,4.5,No
2024/05/29,23:30,8.0,4.6,No
2024/05/29,23:40,8.3,4.6,No
2024/05/29,23:50,8.1,4.6,No
